Regional Weather Roundup
Issued by NWS Green Bay, WI

Home | Current Version | Previous Version | Graphics & Text | Print | Product List | Glossary Off
Versions: 1 2 3 4 5 6 7 8 9 10 11 12 13 14 15 16 17 18 19 20 21 22 23 24 25 26 27 28 29 30 31 32 33 34 35 36 37 38 39 40 41 42 43 44 45 46 47 48 49 50

993
ASUS43 KGRB 240111
RWRGRB

NORTH-CENTRAL AND NORTHEAST WISCONSIN REGIONAL WEATHER ROUNDUP
NATIONAL WEATHER SERVICE GREEN BAY WI
800 PM CDT FRI JUN 23 2017

WIZ005-009-010>012-018-019-240200-
NORTH CENTRAL WISCONSIN

CITY           SKY/WX    TMP DP  RH WIND       PRES   REMARKS
IRONWOOD       MOCLDY    63  49  60 NW3       29.75R
MANITOWISH WTR MOCLDY    63  50  63 NW5       29.75S
ARBOR VITAE    PTCLDY    63  49  59 NW3       29.76R
EAGLE RIVER    CLOUDY    62  47  58 W5        29.75R
LAND O LAKES   MOCLDY    63  46  52 NW7       29.77R
RHINELANDER    CLOUDY    64  48  56 NW5       29.76R
PHILLIPS       MOCLDY    64  51  62 W3        29.77R
ANTIGO         PTCLDY    62  50  64 W9        29.76R
TOMAHAWK       NOT AVBL
MERRILL        MOCLDY    65  50  56 NW6       29.76S
$$

WIZ013-073-240200-
NORTHEAST WISCONSIN

CITY           SKY/WX    TMP DP  RH WIND       PRES   REMARKS
IRON MOUNTAIN  PTCLDY    66  45  46 NW7       29.70R
MARINETTE      CLEAR     70  49  47 NW8       29.69R
OCONTO         PTCLDY    69  51  53 W9        29.70R
$$

WIZ017-030-035>037-045-240200-
CENTRAL WISCONSIN

CITY           SKY/WX    TMP DP  RH WIND       PRES   REMARKS
MEDFORD        MOCLDY    63  49  59 NW10G17   29.79R
WAUSAU         CLOUDY    66  50  56 W14       29.75R
MOSINEE        MOCLDY    64  52  63 W9        29.78R
MARSHFIELD     CLOUDY    65  50  58 W9        29.78R
WISC RAPIDS    MOCLDY    67  52  58 NW9       29.79R
STEVENS POINT  PTCLDY    66  50  55 W6        29.77R
WAUPACA        PTCLDY    70  54  56 W7        29.75S
SHAWANO        MOCLDY    69  51  51 W8        29.73R
CLINTONVILLE   MOCLDY    68  48  49 NW10      29.74R
WAUTOMA        MOCLDY    68  55  63 W12G20    29.77R
$$

WIZ038-039-048-051-240200-
FOX VALLEY

CITY           SKY/WX    TMP DP  RH WIND       PRES   REMARKS
NWS GREEN BAY  PTCLDY    68  55  63 W13       29.72R
APPLETON       MOCLDY    66  48  52 W14       29.73R
OSHKOSH        PTCLDY    68  53  58 NW14G22   29.74R
FOND DU LAC    PTCLDY    70  52  52 NW13G21   29.74S
$$

WIZ022-050-052-240200-
EAST CENTRAL WISCONSIN

CITY           SKY/WX    TMP DP  RH WIND       PRES   REMARKS
EPHRAIM        CLOUDY    68  51  52 NW7       29.68R
WASHINGTON ISL CLOUDY    67  53  61 NW5       29.67R
STURGEON BAY     N/A     69  54  58 W9          N/A
MANITOWOC      CLOUDY    71  52  50 NW14      29.71R
SHEBOYGAN      MOCLDY    69  54  58 W9        29.72R
$$

LMZ563-521-522-541>543-240200-
LAKESHORE

STATION/POSITION TIME  TEMP    WIND        PRES    VSBY  WAVE
                       AIR SEA DIR/SP/G                  HT/PER
                 (UTC) (F)     (DEG/KT/KT) (MB)    (MI)  (FT/S)
SHEBOYGAN LKSHOR 0100   71     300/ 12/ 14 1005.8R
KEWAUNEE LKSHORE 0048   71     300/  8/ 12 1005.3R
NORTHPORT PIER   0040   71     290/  5/ 10 1004.7R
N MID LAKE BUOY  0050   61 58   20/  6/  8 1005.1R         1
S GREEN BAY BUOY 0100   70     280/ 14/ 16 1005.4
CHAMBERS ISLAND  0040   70     310/  2/  6 1004.7R
MENOMINEE LKSHOR 0048          290/  6/ 11 1004.4R
$$




USA.gov is the U.S. government's official web portal to all federal, state and local government web resources and services.